[ ตารางข้อมูล ] [ Min-Max ] [ วันนี้4 ] [ วันนี้2 ] [ เทียบ3วัน A ] [ เทียบ4วัน B ]   

วันนี้2   [ ◀ ช่วงเก่ากว่า ] [ ช่วงที่ 269 ] [ ช่วงใหม่กว่า ▶ ] [ ล่าสุด ]    [ 3 ชั่วโมง ] [ 6 ชั่วโมง ] [ 12 ชั่วโมง ] [ 24 ชั่วโมง ]   วันนี้2

อุณภูมิตู้ Knockdown4529  ราย 3 ชั่วโมง  ที่วัดได้ ในช่วงวันเวลา 04/04/2026 (00:58) ถึง 04/04/2026 (03:58) 
ความชื้นในตู้ Knockdown4529  ราย 3 ชั่วโมง  ที่วัดได้ ในช่วงวันเวลา 04/04/2026 (00:58) ถึง 04/04/2026 (03:58) 

 
DS18B20SHTC3 
IDDate d/m/Y & Timedata1
สูง
data2
ต่ำ
data3
นอก
temp
pcb
hum
pcb
Time
 8614  04/04/2026 03:54:33  26.5  26.6  24.4  26.4  69.9  03:54 
 8613  04/04/2026 03:49:52  26.6  26.7  24.5  26.4  70.0  03:49 
 8612  04/04/2026 03:45:11  26.6  26.7  24.6  26.6  69.9  03:45 
 8611  04/04/2026 03:40:29  26.6  26.8  24.5  26.5  69.7  03:40 
 8610  04/04/2026 03:35:47  26.6  26.8  24.5  26.6  69.8  03:35 
 8609  04/04/2026 03:31:05  26.7  26.8  24.4  26.6  69.8  03:31 
 8608  04/04/2026 03:26:24  26.7  26.8  24.5  26.6  69.7  03:26 
 8607  04/04/2026 03:21:43  26.8  26.8  24.4  26.7  69.6  03:21 
 8606  04/04/2026 03:17:02  26.8  26.9  23.9  26.6  69.7  03:17 
 8605  04/04/2026 03:12:20  26.8  26.9  23.6  26.6  69.6  03:12 
 8604  04/04/2026 03:07:37  26.8  26.9  23.8  26.8  69.8  03:07 
 8603  04/04/2026 03:02:56  26.8  26.9  23.8  26.8  69.7  03:02 
 8602  04/04/2026 02:58:14  26.8  26.9  24.0  26.9  69.7  02:58 
 8601  04/04/2026 02:53:32  26.8  27.0  24.3  26.9  69.7  02:53 
 8600  04/04/2026 02:48:50  26.8  27.0  24.5  26.8  69.8  02:48 
 8599  04/04/2026 02:44:08  26.8  27.0  24.4  26.7  69.5  02:44 
 8598  04/04/2026 02:39:26  26.9  27.1  24.2  26.9  69.7  02:39 
 8597  04/04/2026 02:34:44  26.9  27.1  24.4  26.9  69.8  02:34 
 8596  04/04/2026 02:30:03  26.9  27.1  24.2  26.8  69.6  02:30 
 8595  04/04/2026 02:25:21  26.9  27.1  24.6  27.1  69.6  02:25 
 8594  04/04/2026 02:20:39  26.9  27.1  24.5  27.0  69.7  02:20 
 8593  04/04/2026 02:15:58  27.0  27.2  24.7  27.1  69.7  02:15 
 8592  04/04/2026 02:11:16  27.0  27.2  25.0  27.1  69.5  02:11 
 8591  04/04/2026 02:06:34  27.1  27.2  25.0  26.9  69.5  02:06 

Data every 5 minute.


ใช้เวลาประมวลผล 0.00314 วินาที